Flag for Poland Weather past 2 weeks in Kalisz, Poland

Now
55 °F

Light rain. Low clouds.


Feels Like: 54 °F
Forecast: 54 / 72 °F
Wind: 6 mph from Northeast

Location: Kalisz

Current Time: Sep 2, 2014 at 12:27:37 PM

Latest Report: Sep 2, 2014 at 11:00 AM


Visibility: 6 mi

Pressure: 30.10 "Hg

Humidity: 97%

Dew point: 54 °F

Location of KaliszLocation

Historic Weather in Kalisz — Graph

°F

Kalisz temperature yesterday

Maximum temperature yesterday: 61 °F (at 11:00 AM)
Minimum temperature yesterday: 58 °F (at 11:00 PM)
Average temperature yesterday: 60 °F

Past Weeks' High & Low Weather Summary

 TemperatureHumidityPressure
High74 °F (Aug 29, 2:00 PM)100% (Aug 27, 3:00 AM)30.10 "Hg (Aug 27, 3:00 AM)
Low44 °F (Aug 27, 6:00 AM)29% (Aug 22, 2:00 PM)29.71 "Hg (Aug 18, 3:00 PM)
Average59 °F76%29.95 "Hg
* Reported Aug 18 11:00 AM — Sep 2 11:00 AM, Kalisz, Weather by CustomWeather, © 2014

Note: Actual official high and low records may vary slightly from our data, if they occured in-between our weather recording intervals... More about our weather records

Advertising

Kalisz weather history for previous 24 hours

 ConditionsComfort  
Time TempWeatherWind HumidityBarometerVisibility
11:00 AM
Sep 2
55 °FLight rain. Low clouds.6 mph97%30.10 "Hg6 mi
10:00 AM55 °FRain. Low clouds.6 mph98%30.09 "Hg4 mi
9:00 AM54 °FRain. Low clouds.5 mph99%30.08 "Hg4 mi
8:00 AM54 °FLight rain. Low clouds.6 mph99%30.07 "Hg4 mi
7:00 AM54 °FLight rain. Low clouds.7 mph99%30.06 "Hg4 mi
6:00 AM54 °FRain. Low clouds.6 mph99%30.05 "Hg3 mi
5:00 AM54 °FHeavy rain. Low clouds.6 mph99%30.04 "Hg2 mi
4:00 AM55 °FRain. Low clouds.5 mph99%30.04 "Hg2 mi
3:00 AM55 °FLight rain. Low clouds.5 mph99%30.03 "Hg3 mi
2:00 AM56 °FLight rain. Low clouds.6 mph99%30.04 "Hg3 mi
1:00 AM57 °FLight rain. Low clouds.3 mph99%30.04 "Hg2 mi
12:00 AM57 °FRain. Low clouds.5 mph98%30.04 "Hg3 mi
11:00 PM
Sep 1
58 °FLight rain. Overcast.3 mph97%30.04 "Hg3 mi
10:00 PM59 °FLight rain. Overcast.5 mph95%30.04 "Hg4 mi
9:00 PM60 °FLight rain. Overcast.3 mph95%30.03 "Hg2 mi
8:00 PM60 °FLight rain. Overcast.3 mph94%30.02 "Hg3 mi
7:00 PM60 °FOvercast.5 mph92%30.01 "Hg6 mi
6:00 PM61 °FOvercast.5 mph90%30.01 "Hg7 mi
5:00 PM61 °FOvercast.6 mph88%30.01 "Hg6 mi
4:00 PM61 °FOvercast.5 mph89%30.01 "Hg7 mi
3:00 PM61 °FFog.5 mph91%29.99 "Hg4 mi
2:00 PM60 °FFog.5 mph95%30.00 "Hg3 mi
1:00 PM60 °FFog.5 mph95%30.00 "Hg2 mi
12:00 PM61 °FLow clouds.5 mph97%29.99 "Hg2 mi
Weather by CustomWeather, © 2014

See weather overviewHow to use our weather pages